Minneapolis Flying Cloud, MN

8:00 PM CDT on April 29, 2017 (GMT -0500)
Flying Cloud

Weather History for KFCM - December, 2011

Change the Weather History Date:

Saturday, December 24, 2011

  Actual Average Record
Temperature  
Mean Temperature 30 °F -  
Max Temperature 43 °F 25 °F 43 °F (2011)
Min Temperature 16 °F 10 °F -15 °F (2013)
Degree Days  
Heating Degree Days 36    
Moisture  
Dew Point 19 °F    
Average Humidity 66    
Maximum Humidity 88    
Minimum Humidity 45    
Precipitation  
Precipitation 0.00 in - - ()
Sea Level Pressure  
Sea Level Pressure 30.10 in    
Wind  
Wind Speed 6 mph (SW)    
Max Wind Speed 13 mph    
Max Gust Speed 21 mph    
Visibility 10 miles    
Events      
Averages and records for this station are not official NWS values.
T = Trace of Precipitation, MM = Missing Value Source: NWS Daily Summary

Daily Weather History Graph

Daily Weather History Graph

Search for Another Location

Airport or City:

Trip Planner

Search our weather history database for the weather conditions in past years. The results will help you decide how hot, cold, wet, or windy it might be!

Date:

Astronomy

Dec. 24, 2011 Rise Set
Actual Time 7:49 AM CST 4:37 PM CST
Civil Twilight 7:15 AM CST 5:10 PM CST
Nautical Twilight 6:38 AM CST 5:48 PM CST
Astronomical Twilight 6:03 AM CST 6:23 PM CST
Moon 7:38 AM CST (12/24) 4:51 PM CST (12/24)
Length of Visible Light 9h 54m
Length of Day
8h 47m
New Moon, 0% of the Moon is Illuminated
Dec 24
New Moon
Dec 24
New
Jan 1
First Quarter
Jan 9
Full
Jan 16
Last Quarter

Hourly Weather History & Observations

Time (CST) Temp. Windchill Dew Point Humidity Pressure Visibility Wind Dir Wind Speed Gust Speed Precip Events Conditions
12:53 AM 21.0 °F 16.2 °F 15.1 °F 78% 30.18 in 10.0 mi SSW 3.5 mph - N/A   Clear
1:53 AM 19.0 °F 13.9 °F 15.1 °F 85% 30.18 in 10.0 mi SSW 3.5 mph - N/A   Clear
2:53 AM 19.0 °F - 15.1 °F 85% 30.19 in 10.0 mi Calm Calm - N/A   Clear
3:53 AM 18.0 °F 12.7 °F 15.1 °F 88% 30.17 in 10.0 mi SSW 3.5 mph - N/A   Clear
4:53 AM 16.0 °F 8.8 °F 12.9 °F 88% 30.15 in 10.0 mi South 4.6 mph - N/A   Clear
5:53 AM 19.9 °F 11.1 °F 16.0 °F 85% 30.14 in 10.0 mi South 6.9 mph - N/A   Clear
6:53 AM 19.0 °F 10.0 °F 15.1 °F 85% 30.13 in 10.0 mi SW 6.9 mph - N/A   Clear
7:53 AM 19.9 °F 10.1 °F 16.0 °F 85% 30.11 in 10.0 mi SW 8.1 mph - N/A   Clear
8:53 AM 23.0 °F 13.1 °F 18.0 °F 81% 30.11 in 10.0 mi SW 9.2 mph - N/A   Clear
9:53 AM 28.0 °F 18.1 °F 19.0 °F 69% 30.12 in 10.0 mi WSW 11.5 mph - N/A   Clear
10:53 AM 32.0 °F 24.8 °F 21.0 °F 64% 30.12 in 10.0 mi SW 8.1 mph - N/A   Clear
11:53 AM 36.0 °F 27.5 °F 21.0 °F 55% 30.09 in 10.0 mi West 12.7 mph 20.7 mph N/A   Clear
12:53 PM 39.0 °F 32.8 °F 21.9 °F 50% 30.07 in 10.0 mi West 9.2 mph 18.4 mph N/A   Clear
2:53 PM 43.0 °F 38.2 °F 23.0 °F 45% 30.06 in 10.0 mi West 8.1 mph 18.4 mph N/A   Clear
3:53 PM 41.0 °F 35.2 °F 23.0 °F 49% 30.07 in 10.0 mi SW 9.2 mph - N/A   Clear
4:53 PM 39.9 °F 33.9 °F 24.1 °F 53% 30.08 in 10.0 mi SW 9.2 mph - N/A   Clear
6:53 PM 39.0 °F 32.3 °F 24.1 °F 55% 30.06 in 10.0 mi WSW 10.4 mph - N/A   Clear
7:53 PM 41.0 °F 34.7 °F 21.9 °F 47% 30.05 in 10.0 mi WSW 10.4 mph - N/A   Scattered Clouds
8:53 PM 41.0 °F 34.7 °F 21.9 °F 47% 30.05 in 10.0 mi West 10.4 mph - N/A   Clear
9:53 PM 39.0 °F 31.8 °F 21.0 °F 49% 30.04 in 10.0 mi WSW 11.5 mph - N/A   Clear
10:53 PM 37.0 °F 31.0 °F 21.0 °F 52% 30.03 in 10.0 mi WSW 8.1 mph - N/A   Clear
11:53 PM 37.0 °F 31.0 °F 19.9 °F 50% 30.04 in 10.0 mi West 8.1 mph - N/A   Clear